map of SVO home
Great Circle Mapper logo
SVO - Airport
Location
City:  Moscow, Russian Federation (Russia)
Name:Sheremetyevo International Airport
ICAO / IATA:UUEE / SVO

Details
Type:Airport (Aerodrome, Airfield)
Use:Public/Civil, International (customs port of entry)
Latitude:5558'22"N (55.972642)
Longitude:3724'53"E (37.414589)
Datum:WGS 1984
Elevation:622 ft (190 m)
Runways:2
Longest:12139 × 197 ft (3700 × 60 m), paved

Time
Time Zone:UTC+3 (DST+4)

Weather
METAR:UUEE 022300Z 31004MPS 9999 BKN005 12/11 Q1021 NOSIG
TAF:UUEE 022302Z 0300/0324 32006MPS 9000 OVC006
TEMPO 0300/0305 VRB02MPS 0500 FG VV001
BECMG 0305/0307 BKN015

Related Locations
Nearby:
Farthest:CHT: 10730 mi / 17269 km
Waitangi [Tuuta], Chatham Islands, NZ

Find:

   beyond  
but within

Other Information
Maps:
NOTAMs:
Links:
Sources:

  
flag of Russian Federation (Russia)
flag of Moscow
  

Airport Diagram

Airport diagram for SVO

Airport diagram (OBSOLETE) from NGA

Sectional Chart

Flight Planning
at skyvector.com

Satellite Image

Google Maps Satellite View

 

Copyright © 2004-2014 Karl L. Swartz. All rights reserved.
The Great Circle Mapper name and logo are trademarks of the Great Circle Mapper.
All other trademarks mentioned herein belong to their respective owners.
Please see credits for attibutions and further copyright information.

  Follow gcmap on Facebook Follow gcmap on Twitter

hCard Microformat

Geo Microformat